Location: Tr�vern
(48.0333°N, 4.6000°W)
Time: 08:13:10
(UTC+00:00)

Resurs 1-4 Rocket - Pass Details

Date: 14 July 2020
Orbit: 800 x 814 km, 98.6° (Epoch: 04 August)

Event Time Altitude Azimuth Distance (km) Brightness Sun altitude
Rises 01:22:03 0° 20° (NNE) 3,348 7.0 -19.1°
Reaches altitude 10° 01:24:34 10° 28° (NNE) 2,410 5.7 -19.0°
Maximum altitude 01:29:34 40° 97° (E) 1,185 3.0 -18.8°
Enters shadow 01:32:21 23° 152° (SSE) 1,667 3.3 -18.7°
